TIME,DELAY(SENSOR),PRES,OXYGEN,RAWTEMP,T(OPTODE),TCPHASE,FLUOR,BETA(BETA700),BETA(BETA412),BETA(BETA440),CDOM,C(CSC),ED(ED412.40),ED(ED444.00),ED(ED489.70),ED(ED554.30),LU(LU411.80),LU(LU443.40),LU(LU489.60),LU(LU554.10),COMP,TILTX,TILTY,CHECK
1356233872,5811,859.7600097656250000,47.6910209655761700,667.2943725585938000,4.3875331878662110,53.9604301452636700,52,100,84,80,80,15206,2147756937,2147421394,2148009225,2147872786,2147639424,2147057627,2148262390,2147192804,1944,4,13,22339
1356237468,5810,957.2399902343750000,52.2744407653808600,675.8629150390625000,4.1043281555175780,53.4352989196777340,53,99,86,79,79,15204,2147758921,2147423451,2148010624,2147872155,2147639890,2147058276,2148267172,2147194925,1456,4,13,47414
1356241068,5811,978.8300170898438000,53.4370803833007800,677.1243286132812000,4.0625672340393070,53.2924308776855500,51,98,85,79,81,15190,2147757860,2147422482,2148006555,2147876772,2147644388,2147058989,2148264731,2147195081,82,4,13,64576
1356244668,5808,994.4099731445312000,53.0101509094238300,677.3126831054688000,4.0563278198242190,53.3557014465332000,52,99,83,79,81,15202,2147758372,2147421970,2148008630,2147875401,2147642788,2147057590,2148262116,2147194532,3012,4,13,28464
1356248268,5805,992.7700195312500000,52.9706382751464840,677.5098266601562000,4.0498008728027340,53.3611717224121100,52,102,84,79,81,15206,2147758509,2147423286,2148005805,2147875547,2147645760,2147060617,2148261933,2147191140,3522,4,13,61407
1356251868,5809,999.1500244140625000,53.0050811767578100,678.3591918945312000,4.0216641426086430,53.3710899353027340,52,99,87,77,81,15204,2147758665,2147423789,2148006381,2147877366,2147647012,2147058752,2148263478,2147195035,3540,4,13,50114
1356255468,5808,1001.7000122070312000,52.8176689147949200,676.8496704101562000,4.0716590881347660,53.3745918273925800,53,96,92,78,81,15204,2147758418,2147422619,2148009609,2147873883,2147647149,2147052662,2148262756,2147195794,3556,4,13,28815
1356259068,5808,996.3900146484375000,52.6007499694824200,677.5584716796875000,4.0481848716735840,53.4164390563964840,52,101,89,79,82,15204,2147762605,2147424941,2148010660,2147877010,2147645741,2147056246,2148264804,2147199076,3492,4,13,32511
1356262668,5806,1002.1400146484375000,52.6670608520507800,677.9332885742188000,4.0357699394226070,53.4110794067382800,52,97,101,78,80,15204,2147763931,2147421568,2148009426,2147875392,2147645312,2147057645,2148259154,2147197394,167,4,13,37681
1356266268,5809,1001.9799804687500000,52.5156097412109400,677.4829101562500000,4.0506901741027830,53.4256401062011700,52,97,86,78,81,15204,2147757092,2147422162,2148009426,2147871881,2147645961,2147058432,2148265197,2147195995,158,4,13,54649
1356269868,5813,1002.4799804687500000,52.4898796081543000,676.9371948242188000,4.0687618255615230,53.4185295104980500,52,97,86,79,82,15203,2147758290,2147421595,2148010057,2147872868,2147643017,2147052480,2148263780,2147196946,287,4,13,37323
1356273468,5808,1004.8400268554688000,52.4271507263183600,677.7573242187500000,4.0416011810302730,53.4353294372558600,53,100,88,79,81,15205,2147758957,2147423616,2148010587,2147877156,2147643483,2147056621,2148267154,2147196461,404,4,13,18719
1356277068,5812,994.5100097656250000,52.3378982543945300,679.1834716796875000,3.9943499565124510,53.4695816040039060,52,99,90,79,80,15203,2147758546,2147422281,2148009590,2147873097,2147643602,2147058048,2148259483,2147197001,957,4,13,43235
1356280668,5809,1002.9400024414062000,53.5225296020507800,679.5711059570312000,3.9815061092376710,53.3159408569335940,52,99,90,80,82,15204,2147757622,2147423451,2148009508,2147874697,2147642459,2147061696,2148265014,2147193718,3582,4,14,10323
1356284268,5808,999.0999755859375000,52.1727104187011700,679.1372070312500000,3.9958860874176025,53.4907798767089840,52,98,89,81,81,15203,2147759597,2147421229,2148008054,2147874404,2147643620,2147059529,2148267337,2147196278,42,4,13,46232
1356287868,5806,990.2399902343750000,52.6628608703613300,679.7614746093750000,3.9751949310302734,53.4325294494628900,53,100,86,78,81,15205,2147755712,2147422080,2148012461,2147872475,2147640466,2147057316,2148262710,2147195117,3347,4,13,32150
1356291468,5807,995.3699951171875000,53.8664093017578100,679.8756103515625000,3.9714128971099854,53.2720985412597660,52,96,85,77,81,15202,2147759204,2147425472,2148007396,2147874212,2147640585,2147055616,2148264045,2147193142,163,4,13,16419
1356295068,5807,1000.5200195312500000,53.7475395202636700,680.3521728515625000,3.9556119441986084,53.2936897277832000,52,98,86,79,82,15202,2147756562,2147425142,2148013001,2147875136,2147643264,2147056905,2148268873,2147196269,3481,4,13,7663
1356298668,5807,1001.6599731445312000,53.8893699645996100,680.3524169921875000,3.9556059837341310,53.2767791748046900,52,99,86,78,81,15199,2147758070,2147422848,2148011520,2147875446,2147645558,2147056045,2148261001,2147196973,116,4,13,7178
1356302268,5809,1006.4400024414062000,53.8316917419433600,679.9636230468750000,3.9684939384460450,53.2790107727050800,52,98,87,79,80,15198,2147760064,2147421677,2148008374,2147872539,2147644141,2147054546,2148266166,2147198857,3324,4,13,32152
1356305868,5812,1012.9600219726562000,52.6830787658691400,678.8391113281250000,4.0057621002197270,53.4197311401367200,52,99,88,79,80,15197,2147759972,2147425088,2148012617,2147873572,2147645577,2147053220,2148265069,2147195300,3511,4,13,12796
1356309468,5808,1007.5599975585938000,51.8453598022460940,678.4354858398438000,4.0191359519958500,53.5267715454101560,53,100,87,78,82,15138,2147760740,2147421705,2148010404,2147875264,2147642313,2147061092,2148257051,2147193956,343,4,13,7631
1356313068,5807,1012.4299926757812000,52.1863594055175800,678.7335205078125000,4.0092620849609375,53.4836997985839840,52,100,85,80,82,15136,2147759076,2147423168,2148011638,2147873536,2147642029,2147056795,2148265252,2147201051,3204,4,13,23415
1356316668,5811,1016.2500000000000000,51.4494895935058600,678.2435302734375000,4.0254960060119630,53.5790290832519500,51,98,88,78,81,15142,2147759405,2147421330,2148010029,2147875401,2147641636,2147056457,2148262820,2147196470,179,4,13,35143
1356320268,5809,1016.4199829101562000,50.9498596191406250,677.8621826171875000,4.0381259918212890,53.6387481689453100,52,100,85,77,80,15137,2147757933,2147424164,2148011538,2147875620,2147641837,2147059666,2148262436,2147193216,372,4,13,8704
1356323868,5809,1018.8499755859375000,51.5240592956543000,676.9340209960938000,4.0688672065734860,53.5521888732910160,53,98,87,80,80,15138,2147754404,2147422866,2148010669,2147875154,2147642797,2147062390,2148263579,2147194816,374,4,13,11126
1356327468,5809,1012.8599853515625000,51.2453804016113300,677.8322753906250000,4.0391159057617190,53.6016883850097660,53,97,87,78,81,15137,2147756480,2147419282,2148012059,2147873846,2147642514,2147057536,2148259602,2147198326,489,4,13,57093
1356331068,5809,999.7299804687500000,51.8909797668457000,679.0333862304688000,3.9993250370025635,53.5268211364746100,51,97,86,81,81,15137,2147758326,2147423104,2148011108,2147876077,2147644150,2147058368,2148261476,2147195501,325,4,13,59866
1356334668,5811,1007.8099975585938000,53.3031692504882800,679.3096923828125000,3.9901700019836426,53.3389701843261700,52,97,86,80,81,15140,2147758720,2147423268,2148008109,2147873910,2147642523,2147057974,2148262482,2147195584,293,4,13,14028
1356338268,5809,1007.5599975585938000,52.2675781250000000,679.1206054687500000,3.9964349269866943,53.4791908264160160,52,98,86,78,83,15136,2147758875,2147419273,2148010157,2147873261,2147636690,2147063652,2148262473,2147198976,163,4,13,17698
1356341868,5810,1001.5900268554688000,53.0993003845214840,679.7324829101562000,3.9761540889739990,53.3716316223144500,52,99,88,79,80,15139,2147759515,2147420306,2148009499,2147874880,2147641755,2147060845,2148263387,2147194368,3516,4,13,39902
1356345468,5813,1013.1400146484375000,53.3162193298339840,679.6588745117188000,3.9785959720611572,53.3474617004394500,53,98,86,79,82,15136,2147763428,2147424557,2148009883,2147873718,2147645120,2147057938,2148265837,2147194697,81,4,13,27814
1356349068,5810,1010.5900268554688000,52.5999984741210940,678.9359130859375000,4.0025558471679690,53.4291610717773440,53,95,88,78,80,15135,2147756662,2147423369,2148010432,2147874048,2147647122,2147060224,2148265910,2147196580,278,4,13,61056
1356352668,5809,1015.9400024414062000,52.2639999389648440,678.6962280273438000,4.0104961395263670,53.4693489074707000,52,98,85,78,81,15135,2147758528,2147423488,2148008941,2147873353,2147645714,2147055689,2148266422,2147198409,560,4,13,43578
1356356268,5812,1016.6699829101562000,52.9380989074707000,678.9030151367188000,4.0036468505859375,53.3842315673828100,51,99,84,78,81,15135,2147758875,2147423625,2148007844,2147872804,2147644690,2147059309,2148269458,2147196297,3196,4,13,40280
1356359868,5808,1020.2299804687500000,53.0224990844726560,678.7736206054688000,4.0079331398010250,53.3717994689941400,51,98,85,80,80,15136,2147758774,2147423259,2148010770,2147878628,2147644553,2147059638,2148267373,2147198857,197,4,13,15712
1356363468,5811,1008.8499755859375000,52.2249412536621100,678.9448242187500000,4.0022621154785160,53.4831390380859400,53,97,89,77,81,15137,2147761197,2147423076,2148010011,2147873673,2147643648,2147058514,2148266038,2147195739,345,4,13,29719
1356367068,5804,1010.2999877929688000,53.5737800598144500,679.4052734375000000,3.9869999885559080,53.3043708801269500,52,98,88,80,81,15130,2147756132,2147424100,2148010102,2147873444,2147643465,2147055680,2148258651,2147195840,126,4,13,18089
1356370668,5809,1012.0000000000000000,52.4728088378906250,679.0010986328125000,4.0003948211669920,53.4508094787597660,53,98,86,79,80,15137,2147756032,2147421549,2148009024,2147873554,2147643894,2147052900,2148259200,2147199286,34,4,13,23938
1356374268,5805,999.4500122070312000,52.3531608581543000,679.3989257812500000,3.9872109889984130,53.4715995788574200,51,98,86,78,81,15135,2147756260,2147420745,2148010715,2147874395,2147644370,2147057590,2148265636,2147197248,795,4,13,7069
1356377868,5810,1005.4899902343750000,54.5972213745117200,680.6782226562500000,3.9448070526123047,53.1859207153320300,52,96,86,79,80,15136,2147756827,2147421760,2148010724,2147873938,2147643163,2147057197,2148265069,2147196580,3316,4,13,54115
1356379255,5809,1002.4000244140625000,54.3492317199707000,680.7780151367188000,3.9414980411529540,53.2243309020996100,52,96,89,78,81,15189,2147758802,2147423350,2148010614,2147873252,2147645723,2147055341,2148268891,2147198363,3153,4,13,8465
